Regional Weather Roundup
Issued by NWS

Home | Current Version | Previous Version | Text Only | Print | Product List | Glossary Off
Versions: 1 2 3 4 5 6 7 8 9 10 11 12 13 14 15 16 17 18 19 20 21 22 23 24 25 26 27 28 29 30 31 32 33 34 35 36 37 38 39 40 41 42 43 44 45 46 47 48 49 50

000
ASUS45 KABQ 011701
RWRNM
WEATHER ROUNDUP FOR NEW MEXICO
NATIONAL WEATHER SERVICE ALBUQUERQUE NM
1000 AM MST SUN MAR 01 2015

NOTE: "FAIR" MEANS FEW OR NO CLOUDS BELOW 12,000 FEET AGL WITH NO
       SIGNIFICANT WEATHER OR OBSTRUCTIONS TO VISION.

      THIS PRODUCT IS RELEASED AS TWO VERSIONS.  ONE VERSION NEAR
      THE TOP OF THE HOUR CONTAINING PRELIMINARY DATA FROM ALBUQUERQUE
      AND OTHER STATIONS.  A FINAL VERSION WITH ADDITIONAL DATA IS
      ISSUED ABOUT 10 MINUTES AFTER THE HOUR.

NMZ501-503-504-510>518-011800-
NORTHWEST PLATEAU/NORTHCENTRAL MOUNTAINS

CITY           SKY/WX    TMP DP  RH WIND       PRES   REMARKS
FARMINGTON     LGT SNOW  33  32  96 E8        30.11S FOG     WCI  26
SANTA FE       PTSUNNY   41  36  82 N3        30.13R
TAOS           CLOUDY    34  30  86 S5        30.14S WCI  30
ANGEL FIRE     CLOUDY    37  31  79 S8G17     30.11S WCI  31

$$
NMZ402-403-502-505>509-011800-
WESTCENTRAL MOUNTAINS/SOUTHWEST MOUNTAINS

CITY           SKY/WX    TMP DP  RH WIND       PRES   REMARKS
GALLUP         LGT RAIN  43  40  89 SW8       30.08S
SILVER CITY    SUNNY     55  32  41 SW18      30.16S

$$
NMZ407-409-411-412-011800-
SOUTHERN DESERTS

CITY           SKY/WX    TMP DP  RH WIND       PRES   REMARKS
DEMING         SUNNY     60  37  42 SW9       30.12S
HOLLOMAN AFB   SUNNY     63  35  35 SE6       30.11S
ALAMOGORDO     SUNNY     64  32  29 S6        30.13S
T OR C         SUNNY     60  34  37 S14       30.10F

$$
NMZ519>523-011800-
CENTRAL VALLEYS/CENTRAL HIGHLANDS

CITY           SKY/WX    TMP DP  RH WIND       PRES   REMARKS
ALBUQUERQUE    PTSUNNY   40  34  79 CALM      30.14R
DOUBLE EAGLE   PTSUNNY   37  32  81 CALM      30.14R
MORIARTY ARPT  CLOUDY    47  35  63 SW10      30.14S
CLINES CORNERS MOSUNNY   48  37  65 W22       30.12R
BELEN          CLOUDY    41  33  73 CALM      30.14S
SOCORRO          N/A     50  36  59 SE6       30.13F

$$
NMZ524>526-539-540-011800-
SOUTHCENTRAL MOUNTAINS

CITY           SKY/WX    TMP DP  RH WIND       PRES   REMARKS
RUIDOSO        NOT AVBL

$$
NMZ527>531-011800-
NORTHEAST HIGHLANDS/NORTHEAST PLAINS

CITY           SKY/WX    TMP DP  RH WIND       PRES   REMARKS
LAS VEGAS      MOSUNNY   37  33  85 S10       30.11R WCI  30
RATON          SUNNY     29  26  89 CALM      30.10R
CLAYTON        CLOUDY    24  20  84 NE10      30.20R WCI  14

$$
NMZ532>537-011800-
EASTCENTRAL PLAINS

CITY           SKY/WX    TMP DP  RH WIND       PRES   REMARKS
TUCUMCARI      CLOUDY    30  26  85 N3        30.20R
CANNON AFB     CLOUDY    28  28  97 SW2       30.20R FOG
CLOVIS AIRPORT CLOUDY    28  27  93 CALM      30.20S

$$
NMZ028-029-538-011800-
SOUTHEAST PLAINS

CITY           SKY/WX    TMP DP  RH WIND       PRES   REMARKS
ROSWELL        CLOUDY    31  29  92 S6        30.22R FOG     WCI  25
ARTESIA        FOG       32  32 100 CALM      30.24R VSB 3/4
CARLSBAD       CLOUDY    35  32  88 S5        30.23R FOG     WCI  31
HOBBS          FOG       32  32 100 CALM      30.24R VSB 1


$$



USA.gov is the U.S. government's official web portal to all federal, state and local government web resources and services.